Location: Alafon
(8.4500°N, 4.2333°E)
Time: 01:22:59
(UTC+00:00)

CZ-2C R/B - Pass Details

Date: 05 July 2020
Orbit: 703 x 909 km, 98.1° (Epoch: 06 August)

Event Time Altitude Azimuth Distance (km) Brightness Sun altitude
Exits shadow 18:56:24 - 151° (SSE) 2,654 5.3 -12.3°
Reaches altitude 10° 18:56:35 10° 150° (SSE) 2,588 5.2 -12.3°
Maximum altitude 19:02:10 49° 77° (ENE) 1,153 3.6 -13.5°
Drops below altitude 10° 19:07:38 10° 4° (N) 2,541 6.0 -14.8°
Sets 19:10:03 0° 359° (N) 3,457 6.8 -15.3°
